Location: Chandler
(33.3060°N, 111.8410°W)
Time: 17:16:49
(UTC-07:00)

Amateur Radio Satellites - All Passes

Search period start: 28 August 2015 16:46
Search period end: 29 August 2015 16:46
Location: Chandler, 33.3060°N, 111.8410°W

Satellite Date Start Highest point End Downlink Frequencies (MHz)
Time Altitude Azimuth
Cubesat XI-IV 28 Aug 16:47:06 16:49:52 15° 66° (ENE) 16:52:54 437.490
MOZHAYETS 4 28 Aug 16:48:56 16:53:31 78° 101° (ESE) 16:58:03
STARS 28 Aug 16:54:53 16:58:08 20° 290° (WNW) 17:01:15 437.465
RS-15 28 Aug 17:03:48 17:14:40 69° 302° (WNW) 17:25:54 29.354- 29.394
AO-7 28 Aug 17:13:07 17:19:22 22° 267° (W) 17:25:14 29.400- 29.500
CUTE-I 28 Aug 17:30:49 17:35:44 40° 72° (ENE) 17:40:42 437.470
SRMSAT 28 Aug 17:38:56 17:43:19 22° 179° (S) 17:47:44 437.500
ISS 28 Aug 17:39:22 17:42:27 41° 228° (SW) 17:45:31 145.825
AIST 2 28 Aug 17:42:53 17:46:12 21° 308° (NW) 17:49:26 435.215
Cosmos 2499 28 Aug 18:00:13 18:03:56 13° 280° (W) 18:06:51 435.465 / 435.565
Cubesat XI-IV 28 Aug 18:24:17 18:29:32 59° 259° (W) 18:34:48 437.490
JUGNU 28 Aug 18:25:45 18:28:53 15° 193° (SSW) 18:31:56 437.505
HO-68 28 Aug 18:31:51 18:34:47 13° 60° (ENE) 18:38:12 435.675
CUBESAT XI-V 28 Aug 18:32:36 18:37:15 84° 103° (ESE) 18:41:54 437.345
STRAND 1 28 Aug 18:34:18 18:37:54 20° 94° (E) 18:41:40 437.568
O/OREOS (USA 219) 28 Aug 18:39:09 18:42:59 29° 103° (ESE) 18:46:56 437.305
GOMX 1 28 Aug 18:43:00 18:45:26 15° 68° (ENE) 18:48:10 467.674
Cosmos 2491 28 Aug 18:49:20 18:53:53 16° 65° (ENE) 18:59:04 435.465 / 435.565
AIST 1 28 Aug 18:50:31 18:53:52 22° 76° (ENE) 18:57:19
PRISM 28 Aug 18:56:36 18:59:39 21° 95° (E) 19:02:49 437.425
CUTE-I 28 Aug 19:12:03 19:15:59 20° 267° (W) 19:19:45 437.470
DOVE 4 28 Aug 19:13:09 19:16:19 20° 69° (ENE) 19:19:46 437.250
RS-15 28 Aug 19:22:18 19:29:53 19° 329° (NNW) 19:37:12 29.354- 29.394
COMPASS 1 28 Aug 19:26:54 19:27:24 10° 68° (ENE) 19:28:11 437.405
SRMSAT 28 Aug 19:27:54 19:31:53 18° 189° (S) 19:35:50 437.500
BRITE-PL 28 Aug 19:32:06 19:36:18 77° 259° (WSW) 19:40:46 437.365/2234.400
AAUSAT CUBESAT 2 28 Aug 19:39:06 19:40:44 12° 69° (ENE) 19:42:37 437.432
CUTE 1.7 + AOD 2 28 Aug 19:49:45 19:53:37 34° 74° (ENE) 19:57:32 437.475
CANX-2 28 Aug 20:02:49 20:07:01 57° 76° (ENE) 20:11:15 2200.000
STRAND 1 28 Aug 20:12:32 20:17:15 38° 288° (WNW) 20:21:55 437.568
HO-68 28 Aug 20:14:30 20:21:39 85° 74° (ENE) 20:28:52 435.675
Oscar 11 28 Aug 20:18:50 20:21:29 16° 70° (ENE) 20:24:18 145.826/435.025
O/OREOS (USA 219) 28 Aug 20:18:55 20:22:27 21° 299° (WNW) 20:25:53 437.305
GOMX 1 28 Aug 20:19:09 20:23:13 39° 263° (W) 20:27:31 467.674
CINEMA 3 28 Aug 20:23:02 20:27:25 50° 74° (ENE) 20:32:03 145.822/145.860
AIST 1 28 Aug 20:28:01 20:31:26 23° 270° (W) 20:34:47
DELFI C3 28 Aug 20:28:19 20:29:46 12° 69° (ENE) 20:31:25 145.870
SEEDS 28 Aug 20:30:34 20:34:49 88° 86° (E) 20:39:06 437.485
PRISM 28 Aug 20:31:43 20:35:03 24° 288° (WNW) 20:38:18 437.425
CUBEBUG 2 28 Aug 20:37:18 20:41:17 31° 72° (ENE) 20:45:27 437.445
Cosmos 2491 28 Aug 20:43:17 20:52:05 87° 264° (W) 21:00:52 435.465 / 435.565
YUBILEINY 28 Aug 20:46:39 20:54:58 52° 91° (E) 21:03:26 435.215
DOVE 4 28 Aug 20:49:54 20:53:52 31° 265° (W) 20:58:00 437.250
UWE-3 28 Aug 20:51:32 20:55:37 34° 73° (ENE) 20:59:50 435.000/436.395/437.385
ZACube-1 28 Aug 20:52:58 20:56:40 26° 72° (ENE) 21:00:32 437.345
COMPASS 1 28 Aug 20:58:30 21:02:39 54° 260° (W) 21:06:47 437.405
FUNcube-1 28 Aug 20:59:46 21:03:40 30° 73° (ENE) 21:07:42 145.935
AAUSAT CUBESAT 2 28 Aug 21:11:58 21:15:59 43° 261° (W) 21:20:00 437.432
CUTE 1.7 + AOD 2 28 Aug 21:26:59 21:29:40 16° 268° (W) 21:32:09 437.475
DX 1 28 Aug 21:40:43 21:43:46 20° 70° (ENE) 21:46:58 434.975-435.025
RS-15 28 Aug 21:47:31 21:49:11 10° 6° (N) 21:51:03 29.354- 29.394
AISAT 28 Aug 21:49:26 21:51:57 16° 69° (ENE) 21:54:40 437.250
Oscar 11 28 Aug 21:53:25 21:57:25 35° 263° (W) 22:01:24 145.826/435.025
UNISAT 6 28 Aug 21:57:17 21:59:50 15° 91° (E) 22:02:33 437.425
UKube-1 28 Aug 21:58:09 22:01:47 28° 72° (ENE) 22:05:30 .
DELFI C3 28 Aug 22:00:37 22:04:29 42° 261° (W) 22:08:21 145.870
CUBEBUG 1 28 Aug 22:01:58 22:03:17 11° 68° (ENE) 22:04:50 437.445
CINEMA 3 28 Aug 22:02:59 22:05:02 12° 271° (W) 22:06:50 145.822/145.860
HUMSAT D 28 Aug 22:05:53 22:10:09 71° 76° (ENE) 22:14:28 437.325/437.525
HO-68 28 Aug 22:06:49 22:10:18 13° 271° (W) 22:13:12 435.675
CUBEBUG 2 28 Aug 22:14:36 22:18:02 20° 267° (W) 22:21:24 437.445
VELOX 1 28 Aug 22:17:14 22:21:04 31° 72° (ENE) 22:24:59 145.980
TIGRISAT 28 Aug 22:26:05 22:30:08 32° 96° (E) 22:34:09 435.000
UWE-3 28 Aug 22:29:05 22:32:15 18° 268° (W) 22:35:19 435.000/436.395/437.385
ZACube-1 28 Aug 22:29:22 22:32:59 23° 266° (W) 22:36:33 437.345
Cosmos 2504 28 Aug 22:30:14 22:36:41 29° 86° (E) 22:43:42 435.465 / 435.565
QB50P2 28 Aug 22:31:02 22:32:27 12° 91° (E) 22:34:09 145.880/145.840
NANOSAT C BR1 28 Aug 22:34:34 22:36:13 12° 91° (E) 22:38:08 145.865
FUNcube-1 28 Aug 22:36:42 22:40:02 20° 267° (W) 22:43:17 145.935
ANTELSAT 28 Aug 22:41:24 22:45:52 51° 99° (E) 22:50:13 437.575/2403.000
Cosmos 2491 28 Aug 22:43:56 22:47:56 13° 279° (W) 22:51:10 435.465 / 435.565
YUBILEINY 28 Aug 22:44:42 22:52:11 29° 288° (WNW) 22:59:27 435.215
AUBIESAT-1 28 Aug 22:44:50 22:48:23 33° 101° (E) 22:51:43 437.475
QB50P1 28 Aug 22:45:44 22:48:35 18° 93° (E) 22:51:35 145.935-145.965
M-CUBED/EXP-1 PRIME 28 Aug 22:46:38 22:50:28 44° 103° (ESE) 22:53:59 437.505
ESTCUBE 1 28 Aug 22:57:58 23:02:26 70° 76° (ENE) 23:06:54 437.505/2401.250
50 SAT 28 Aug 23:03:16 23:07:07 52° 260° (W) 23:11:00 437.505
DX 1 28 Aug 23:16:04 23:19:51 28° 263° (W) 23:23:35 434.975-435.025
AISAT 28 Aug 23:24:08 23:28:14 38° 262° (W) 23:32:20 437.250
TISAT 1 28 Aug 23:26:41 23:29:24 18° 70° (ENE) 23:32:17 437.305
UNISAT 6 28 Aug 23:32:32 23:36:50 39° 286° (WNW) 23:40:58 437.425
UKube-1 28 Aug 23:34:44 23:37:55 20° 266° (W) 23:41:00 .
CUBEBUG 1 28 Aug 23:35:03 23:39:14 50° 260° (W) 23:43:27 437.445
SPROUT 28 Aug 23:43:35 23:47:43 52° 75° (ENE) 23:51:56 437.525
POLYITAN 1 28 Aug 23:44:17 23:48:37 83° 280° (W) 23:52:54 437.675
POPSAT HIP 1 28 Aug 23:48:16 23:52:34 76° 283° (WNW) 23:56:50 437.405
DUCHIFAT 1 28 Aug 23:51:47 23:56:05 72° 284° (WNW) 00:00:19 145.980
VELOX 1 28 Aug 23:54:36 23:57:42 18° 267° (W) 00:00:39 145.980
RS-15 28 Aug 23:58:24 00:07:46 27° 40° (NE) 00:17:46 29.354- 29.394
TIGRISAT 29 Aug 00:03:20 00:06:40 19° 290° (WNW) 00:09:48 435.000
QB50P2 29 Aug 00:04:30 00:08:38 45° 285° (WNW) 00:12:42 145.880/145.840
NANOSAT C BR1 29 Aug 00:08:14 00:12:19 43° 286° (WNW) 00:16:21 145.865
BEESAT 3 29 Aug 00:08:53 00:12:11 24° 54° (NE) 00:15:29 437.485
BUGSAT 1 29 Aug 00:14:10 00:18:23 63° 285° (WNW) 00:22:36 437.445
BEESAT 2 29 Aug 00:16:03 00:19:13 22° 53° (NE) 00:22:25 435.950
BEESAT 29 Aug 00:20:06 00:21:52 12° 67° (ENE) 00:23:55 436.000
ANTELSAT 29 Aug 00:20:08 00:22:12 13° 293° (WNW) 00:24:01 437.575/2403.000
AUBIESAT-1 29 Aug 00:20:42 00:22:47 14° 297° (WNW) 00:24:37 437.475
QB50P1 29 Aug 00:20:43 00:24:31 30° 287° (WNW) 00:28:14 145.935-145.965
Cosmos 2504 29 Aug 00:20:54 00:28:31 48° 283° (WNW) 00:36:35 435.465 / 435.565
M-CUBED/EXP-1 PRIME 29 Aug 00:23:31 00:24:47 11° 298° (WNW) 00:25:49 437.505
CUSAT 1 29 Aug 00:27:10 00:30:26 68° 280° (W) 00:34:45 437.405
DANDE 29 Aug 00:31:29 00:34:24 66° 95° (E) 00:38:07 436.750
SWISSCUBE 29 Aug 00:43:21 00:47:08 25° 71° (ENE) 00:51:02 437.505
TISAT 1 29 Aug 01:01:14 01:04:58 30° 263° (W) 01:08:39 437.305
SO-50 29 Aug 01:13:35 01:18:15 65° 116° (ESE) 01:23:06 436.795
ITUPSAT 1 29 Aug 01:19:15 01:23:55 55° 74° (ENE) 01:28:35 437.325
Oscar 19 29 Aug 01:19:56 01:24:39 35° 97° (E) 01:29:24 437.125/150
GONETS M04 29 Aug 01:36:07 01:41:57 21° 84° (E) 01:48:13
Gurwin Techsat 1B 29 Aug 01:36:31 01:39:05 14° 91° (E) 01:41:59 435.225
PCSat 29 Aug 01:46:39 01:51:53 54° 112° (ESE) 01:57:10 145.827
BEESAT 3 29 Aug 01:46:52 01:50:00 22° 248° (WSW) 01:52:59 437.485
BEESAT 2 29 Aug 01:53:52 01:57:13 25° 248° (WSW) 02:00:27 435.950
BEESAT 29 Aug 01:54:34 01:59:16 58° 259° (W) 02:03:59 436.000
JAS-2 29 Aug 01:59:52 02:02:21 13° 85° (E) 02:05:15 435.910
AIST 2 29 Aug 02:07:14 02:11:23 73° 61° (ENE) 02:15:28 435.215
RS-15 29 Aug 02:09:59 02:22:00 88° 241° (WSW) 02:34:19 29.354- 29.394
STARS 29 Aug 02:11:48 02:14:32 17° 69° (ENE) 02:17:27 437.465
ITAMSAT 1 29 Aug 02:11:56 02:16:12 26° 96° (E) 02:20:34 435.822/435.867
SWISSCUBE 29 Aug 02:20:48 02:24:54 27° 264° (W) 02:28:54 437.505
KKS-1 29 Aug 02:20:50 02:24:54 37° 73° (ENE) 02:29:03 437.445
Cosmos 2499 29 Aug 02:45:57 02:49:08 13° 80° (E) 02:53:09 435.465 / 435.565
SO-50 29 Aug 02:56:33 02:59:20 15° 314° (NW) 03:01:57 436.795
Oscar 19 29 Aug 02:59:44 03:03:49 23° 291° (WNW) 03:07:45 437.125/150
ITUPSAT 1 29 Aug 03:00:13 03:02:11 12° 269° (W) 03:03:52 437.325
Gurwin Techsat 1B 29 Aug 03:14:17 03:19:30 57° 286° (WNW) 03:24:40 435.225
AO-7 29 Aug 03:24:55 03:31:39 28° 96° (E) 03:38:37 29.400- 29.500
VERMONT LUNAR 29 Aug 03:26:00 03:28:35 27° 147° (SSE) 03:31:12 437.305
HORYU 2 29 Aug 03:28:08 03:30:54 17° 93° (E) 03:33:49 437.375
GONETS M04 29 Aug 03:29:31 03:38:08 66° 280° (W) 03:46:46
PCSat 29 Aug 03:31:53 03:35:42 19° 309° (NW) 03:39:20 145.827
JAS-2 29 Aug 03:41:30 03:48:35 81° 285° (WNW) 03:54:46 435.910
MOZHAYETS 4 29 Aug 03:46:37 03:50:59 44° 74° (ENE) 03:55:24
STARS 29 Aug 03:46:41 03:50:43 35° 262° (W) 03:54:46 437.465
ITAMSAT 1 29 Aug 03:51:11 03:55:41 30° 289° (WNW) 04:00:06 435.822/435.867
KKS-1 29 Aug 03:59:00 04:01:43 15° 267° (W) 04:04:15 437.445
RS-15 29 Aug 04:25:31 04:33:23 19° 257° (WSW) 04:40:20 29.354- 29.394
Cosmos 2499 29 Aug 04:32:54 04:41:08 86° 96° (E) 04:49:58 435.465 / 435.565
PHONESAT 2.4 29 Aug 04:48:20 04:49:17 11° 141° (SE) 04:50:22 2401.200-2431.200
O/OREOS (USA 219) 29 Aug 04:52:59 04:56:58 29° 64° (ENE) 05:00:58 437.305
VERMONT LUNAR 29 Aug 05:02:07 05:04:58 41° 340° (NNW) 05:07:50 437.305
HORYU 2 29 Aug 05:03:36 05:07:40 35° 287° (WNW) 05:11:40 437.375
AO-7 29 Aug 05:16:47 05:24:49 54° 292° (WNW) 05:32:44 29.400- 29.500
MOZHAYETS 4 29 Aug 05:25:54 05:28:28 14° 269° (W) 05:30:47
JAS-2 29 Aug 05:30:01 05:32:28 12° 301° (WNW) 05:34:22 435.910
CUBESAT XI-V 29 Aug 05:31:47 05:36:12 49° 75° (ENE) 05:40:39 437.345
STRAND 1 29 Aug 05:46:34 05:50:04 20° 68° (ENE) 05:53:45 437.568
CUTE-I 29 Aug 05:52:38 05:56:41 23° 94° (E) 06:00:53 437.470
PHONESAT 2.4 29 Aug 06:23:25 06:26:48 76° 154° (SSE) 06:30:13 2401.200-2431.200
Cosmos 2499 29 Aug 06:30:28 06:35:42 16° 296° (WNW) 06:40:29 435.465 / 435.565
O/OREOS (USA 219) 29 Aug 06:32:43 06:36:14 21° 258° (WSW) 06:39:37 437.305
VERMONT LUNAR 29 Aug 06:39:34 06:41:52 20° 357° (N) 06:44:10 437.305
Cubesat XI-IV 29 Aug 06:45:41 06:51:01 80° 102° (ESE) 06:56:21 437.490
YUBILEINY 29 Aug 07:03:24 07:09:13 20° 67° (ENE) 07:15:29 435.215
CUBESAT XI-V 29 Aug 07:11:54 07:13:59 12° 270° (W) 07:15:46 437.345
AIST 1 29 Aug 07:16:36 07:19:04 16° 89° (E) 07:21:43
PRISM 29 Aug 07:16:39 07:20:42 57° 259° (W) 07:24:44 437.425
STRAND 1 29 Aug 07:24:13 07:29:01 40° 261° (W) 07:33:47 437.568
CUTE-I 29 Aug 07:32:01 07:36:52 36° 289° (WNW) 07:41:39 437.470
BRITE-PL 29 Aug 07:39:52 07:45:14 51° 99° (E) 07:50:46 437.365/2234.400
Cosmos 2491 29 Aug 07:45:36 07:51:22 21° 84° (E) 07:57:35 435.465 / 435.565
HO-68 29 Aug 07:48:24 07:53:13 20° 92° (E) 07:58:21 435.675
CANX-2 29 Aug 07:54:00 07:55:57 13° 91° (E) 07:58:07 2200.000
PHONESAT 2.4 29 Aug 08:01:52 08:04:55 29° 348° (NNW) 08:07:57 2401.200-2431.200
VERMONT LUNAR 29 Aug 08:16:13 08:18:51 27° 13° (NNE) 08:21:29 437.305
SEEDS 29 Aug 08:19:57 08:22:54 19° 94° (E) 08:25:59 437.485
CINEMA 3 29 Aug 08:23:05 08:26:29 19° 92° (E) 08:30:00 145.822/145.860
GOMX 1 29 Aug 08:23:56 08:29:25 82° 101° (E) 08:34:55 467.674
Cubesat XI-IV 29 Aug 08:29:07 08:30:32 11° 296° (WNW) 08:31:35 437.490
ISS 29 Aug 08:39:00 08:42:01 38° 132° (SE) 08:45:03 145.825
COMPASS 1 29 Aug 08:46:12 08:49:53 31° 96° (E) 08:53:34 437.405
DOVE 4 29 Aug 08:51:58 08:57:19 86° 286° (WNW) 09:02:36 437.250
AIST 1 29 Aug 08:52:43 08:56:29 30° 282° (WNW) 09:00:14
YUBILEINY 29 Aug 08:58:13 09:07:02 74° 266° (W) 09:15:45 435.215
AAUSAT CUBESAT 2 29 Aug 08:58:55 09:02:44 36° 98° (E) 09:06:34 437.432
CUTE 1.7 + AOD 2 29 Aug 09:14:22 09:18:35 65° 283° (WNW) 09:22:44 437.475
BRITE-PL 29 Aug 09:19:32 09:23:24 19° 291° (WNW) 09:27:08 437.365/2234.400
TIGRISAT 29 Aug 09:21:17 09:24:25 19° 69° (ENE) 09:27:45 435.000
CUSAT 1 29 Aug 09:26:31 09:28:35 11° 63° (ENE) 09:31:24 437.405
AUBIESAT-1 29 Aug 09:27:20 09:31:19 29° 67° (ENE) 09:35:24 437.475
CANX-2 29 Aug 09:28:09 09:32:05 38° 286° (WNW) 09:35:58 2200.000
M-CUBED/EXP-1 PRIME 29 Aug 09:29:25 09:33:44 36° 68° (ENE) 09:38:07 437.505
HO-68 29 Aug 09:34:22 09:41:29 63° 288° (WNW) 09:48:33 435.675
ANTELSAT 29 Aug 09:36:15 09:40:11 29° 72° (ENE) 09:44:16 437.575/2403.000
Cosmos 2491 29 Aug 09:38:54 09:47:34 67° 279° (W) 09:56:13 435.465 / 435.565
PHONESAT 2.4 29 Aug 09:40:32 09:43:22 24° 5° (N) 09:46:13 2401.200-2431.200
DELFI C3 29 Aug 09:43:40 09:47:14 31° 97° (E) 09:50:49 145.870
Oscar 11 29 Aug 09:44:29 09:48:43 55° 100° (E) 09:52:56 145.826/435.025
SO-50 29 Aug 09:49:52 09:53:33 21° 50° (NE) 09:57:18 436.795
VERMONT LUNAR 29 Aug 09:52:29 09:55:26 60° 209° (SSW) 09:58:24 437.305
SEEDS 29 Aug 09:55:10 09:58:42 26° 287° (WNW) 10:02:08 437.485
HUMSAT D 29 Aug 09:55:28 09:57:55 15° 92° (E) 10:00:31 437.325/437.525
CINEMA 3 29 Aug 09:59:10 10:03:50 39° 287° (WNW) 10:08:20 145.822/145.860
GOMX 1 29 Aug 10:05:04 10:06:56 11° 294° (WNW) 10:08:26 467.674
CUBEBUG 2 29 Aug 10:08:35 10:13:16 67° 284° (WNW) 10:17:47 437.445
Cosmos 2504 29 Aug 10:12:26 10:20:28 46° 77° (ENE) 10:28:06 435.465 / 435.565
ISS 29 Aug 10:16:14 10:18:32 17° 327° (NNW) 10:20:47 145.825
ZACube-1 29 Aug 10:21:11 10:25:42 84° 283° (WNW) 10:30:05 437.345
UWE-3 29 Aug 10:21:38 10:26:11 61° 284° (WNW) 10:30:35 435.000/436.395/437.385
COMPASS 1 29 Aug 10:22:37 10:25:19 17° 290° (WNW) 10:27:52 437.405
UNISAT 6 29 Aug 10:26:25 10:31:03 76° 259° (WSW) 10:35:46 437.425
FUNcube-1 29 Aug 10:27:56 10:32:25 72° 283° (WNW) 10:36:46 145.935
POLYITAN 1 29 Aug 10:33:02 10:37:01 41° 74° (ENE) 10:41:04 437.675
AAUSAT CUBESAT 2 29 Aug 10:35:48 10:38:02 14° 290° (WNW) 10:40:05 437.432
POPSAT HIP 1 29 Aug 10:36:45 10:40:46 44° 74° (ENE) 10:44:51 437.405
PCSat 29 Aug 10:39:37 10:43:22 19° 52° (NE) 10:47:17 145.827
DUCHIFAT 1 29 Aug 10:39:47 10:43:48 46° 74° (ENE) 10:47:53 145.980
50 SAT 29 Aug 10:43:01 10:45:59 22° 95° (E) 10:49:01 437.505
QB50P2 29 Aug 10:52:44 10:56:58 76° 77° (ENE) 11:01:14 145.880/145.840
ESTCUBE 1 29 Aug 10:55:38 10:58:54 20° 94° (E) 11:02:17 437.505/2401.250
NANOSAT C BR1 29 Aug 10:56:02 11:00:14 79° 76° (ENE) 11:04:30 145.865
TIGRISAT 29 Aug 10:56:39 11:00:54 36° 263° (W) 11:05:13 435.000
BUGSAT 1 29 Aug 10:59:59 11:03:51 48° 75° (ENE) 11:07:49 437.445
AUBIESAT-1 29 Aug 11:01:57 11:05:56 26° 260° (W) 11:09:50 437.475
CUSAT 1 29 Aug 11:04:38 11:12:24 69° 80° (E) 11:20:37 437.405
M-CUBED/EXP-1 PRIME 29 Aug 11:04:53 11:08:32 21° 262° (W) 11:12:05 437.505
DX 1 29 Aug 11:07:44 11:12:05 65° 101° (E) 11:16:27 434.975-435.025
QB50P1 29 Aug 11:08:30 11:12:43 71° 259° (W) 11:16:58 145.935-145.965
DANDE 29 Aug 11:11:46 11:19:10 55° 79° (ENE) 11:27:31 436.750
ANTELSAT 29 Aug 11:13:14 11:16:57 23° 266° (W) 11:20:36 437.575/2403.000
PHONESAT 2.4 29 Aug 11:18:18 11:21:40 55° 21° (NNE) 11:25:02 2401.200-2431.200
AISAT 29 Aug 11:18:26 11:22:50 54° 100° (E) 11:27:13 437.250
DELFI C3 29 Aug 11:19:43 11:22:03 15° 290° (WNW) 11:24:13 145.870
Oscar 11 29 Aug 11:23:34 11:24:28 10° 292° (WNW) 11:25:05 145.826/435.025
UKube-1 29 Aug 11:24:48 11:29:09 87° 285° (WNW) 11:33:30 .
CUBEBUG 1 29 Aug 11:27:53 11:32:01 39° 98° (E) 11:36:10 437.445
SO-50 29 Aug 11:29:42 11:34:18 40° 246° (WSW) 11:38:43 436.795
HUMSAT D 29 Aug 11:29:56 11:33:47 33° 287° (WNW) 11:37:31 437.325/437.525
SPROUT 29 Aug 11:36:07 11:37:59 13° 91° (E) 11:40:05 437.525
VELOX 1 29 Aug 11:47:27 11:51:54 70° 284° (WNW) 11:56:21 145.980
Cosmos 2504 29 Aug 12:05:09 12:12:23 31° 274° (W) 12:19:03 435.465 / 435.565
POLYITAN 1 29 Aug 12:11:08 12:13:09 13° 269° (W) 12:14:56 437.675
POPSAT HIP 1 29 Aug 12:15:18 12:16:55 12° 269° (W) 12:18:16 437.405
50 SAT 29 Aug 12:17:32 12:20:25 20° 289° (WNW) 12:23:10 437.505
DUCHIFAT 1 29 Aug 12:18:36 12:19:55 11° 270° (W) 12:20:56 145.980
PCSat 29 Aug 12:21:53 12:27:08 51° 249° (WSW) 12:32:21 145.827
ESTCUBE 1 29 Aug 12:31:52 12:35:47 29° 288° (WNW) 12:39:38 437.505/2401.250
Oscar 19 29 Aug 12:32:46 12:37:20 34° 72° (ENE) 12:42:00 437.125/150
JUGNU 29 Aug 12:46:15 12:48:42 13° 166° (SSE) 12:51:17 437.505
CUSAT 1 29 Aug 12:48:34 12:54:33 23° 272° (W) 13:00:19 437.405
TISAT 1 29 Aug 12:49:06 12:53:18 55° 100° (E) 12:57:29 437.305
Gurwin Techsat 1B 29 Aug 12:53:45 12:56:47 16° 67° (ENE) 13:00:03 435.225
DANDE 29 Aug 12:55:37 13:02:07 29° 269° (W) 13:08:53 436.750
PHONESAT 2.4 29 Aug 12:56:35 12:59:25 24° 215° (SW) 13:02:13 2401.200-2431.200
AISAT 29 Aug 12:57:16 12:58:59 12° 292° (WNW) 13:00:25 437.250
CUBEBUG 1 29 Aug 13:05:24 13:08:05 15° 291° (WNW) 13:10:34 437.445
SPROUT 29 Aug 13:10:11 13:14:18 42° 286° (WNW) 13:18:23 437.525
ITUPSAT 1 29 Aug 13:24:56 13:28:18 20° 94° (E) 13:31:49 437.325
ITAMSAT 1 29 Aug 13:26:03 13:30:18 27° 70° (ENE) 13:34:39 435.822/435.867
GONETS M04 29 Aug 13:44:53 13:53:23 52° 78° (ENE) 14:01:58
JAS-2 29 Aug 13:47:22 13:53:49 33° 68° (ENE) 14:00:41 435.910
BEESAT 29 Aug 13:58:56 14:03:33 49° 100° (E) 14:08:09 436.000
BEESAT 3 29 Aug 13:59:16 14:00:38 12° 109° (ESE) 14:02:15 437.485
BEESAT 2 29 Aug 14:07:57 14:08:43 11° 109° (ESE) 14:09:46 435.950
Oscar 19 29 Aug 14:12:39 14:16:45 23° 266° (W) 14:20:45 437.125/150
AO-7 29 Aug 14:19:51 14:26:29 29° 62° (ENE) 14:33:21 29.400- 29.500
RS-15 29 Aug 14:21:22 14:27:26 18° 103° (ESE) 14:34:26 29.354- 29.394
SWISSCUBE 29 Aug 14:24:23 14:29:09 78° 284° (WNW) 14:33:53 437.505
TISAT 1 29 Aug 14:27:44 14:28:37 10° 292° (WNW) 14:29:15 437.305
Cosmos 2499 29 Aug 14:30:53 14:37:33 25° 69° (ENE) 14:44:11 435.465 / 435.565
Gurwin Techsat 1B 29 Aug 14:31:10 14:36:22 54° 260° (W) 14:41:34 435.225
JUGNU 29 Aug 14:32:53 14:37:05 20° 175° (S) 14:41:17 437.505
ITUPSAT 1 29 Aug 15:01:59 15:06:16 34° 288° (WNW) 15:10:31 437.325
ITAMSAT 1 29 Aug 15:05:13 15:09:44 29° 264° (W) 15:14:10 435.822/435.867
ISS 29 Aug 15:11:52 15:12:02 10° 27° (NNE) 15:12:19 145.825
JAS-2 29 Aug 15:31:28 15:38:34 46° 263° (W) 15:46:02 435.910
BEESAT 3 29 Aug 15:34:18 15:38:12 45° 302° (WNW) 15:42:07 437.485
SRMSAT 29 Aug 15:38:06 15:41:53 18° 170° (S) 15:45:44 437.500
BEESAT 29 Aug 15:38:23 15:41:01 14° 292° (WNW) 15:43:25 436.000
STARS 29 Aug 15:40:01 15:44:24 56° 100° (E) 15:48:46 437.465
BEESAT 2 29 Aug 15:42:24 15:46:22 50° 301° (WNW) 15:50:22 435.950
GONETS M04 29 Aug 15:42:35 15:49:51 28° 274° (W) 15:56:50
MOZHAYETS 4 29 Aug 15:47:25 15:49:44 14° 91° (E) 15:52:17
KKS-1 29 Aug 15:52:07 15:56:33 57° 285° (WNW) 16:00:56 437.445
HORYU 2 29 Aug 15:57:00 16:01:27 65° 259° (W) 16:05:56 437.375
AIST 2 29 Aug 16:00:59 16:04:58 42° 114° (ESE) 16:09:01 435.215
AO-7 29 Aug 16:10:40 16:18:52 58° 258° (WSW) 16:27:02 29.400- 29.500
JUGNU 29 Aug 16:21:14 16:25:29 21° 185° (S) 16:29:42 437.505
Cosmos 2499 29 Aug 16:22:55 16:31:21 58° 269° (W) 16:39:09 435.465 / 435.565
